Location: Newark
(40.9908°N, 0.0353°W)
Time: 02:23:57
(UTC+00:00)

ISS - Pass Details

Date: 26 October 2019
Orbit: 412 x 421 km, 51.6° (Epoch: 16 November)

Event Time Altitude Azimuth Distance (km) Brightness Sun altitude
Exits shadow 04:41:33 25° 184° (S) 881 -2.2 -19.8°
Maximum altitude 04:42:52 36° 137° (SE) 678 -2.4 -19.6°
Drops below altitude 10° 04:46:01 10° 69° (ENE) 1,506 0.1 -19.0°
Sets 04:48:21 0° 60° (ENE) 2,428 1.2 -18.5°
